EA3HRE-13 Weather Reports


time (UTC)temp
C
wind
direction
speed
KPH
gust
KPH
rain 1hr
cm
rain 24hr
cm
rain mn
cm
humidity
%
barometer
mb
20260506185341 18 199 0.0 0.0 0.00 0.00 0.00 100 1001.7
20260506184341 19 199 0.0 0.0 0.00 0.00 0.00 100 1001.6
20260506183341 20 185 0.0 0.0 0.00 0.00 0.00 100 1001.5
20260506182311 21 177 0.0 0.0 0.00 0.00 0.00 100 1001.4
20260506181311 21 171 0.0 0.0 0.00 0.00 0.00 100 1001.2
20260506180311 21 171 0.0 0.0 0.00 0.00 0.00 100 1001.1
20260506175311 22 195 0.0 0.0 0.00 0.00 0.00 100 1009.2
20260506174241 20 145 0.0 0.0 0.00 0.00 0.00 100 1001.0
20260506173241 21 153 0.0 0.0 0.00 0.00 0.00 100 1000.8
20260506172241 21 128 0.0 0.0 0.00 0.00 0.00 100 1000.9
20260506171240 21 181 0.0 0.0 0.00 0.00 0.00 100 1000.8
20260506170240 21 148 0.0 0.0 0.00 0.00 0.00 100 1000.6
20260506165240 21 156 0.0 0.0 0.00 0.00 0.00 100 1000.6
20260506164240 21 154 0.0 0.0 0.00 0.00 0.00 100 1000.5
20260506163240 22 166 0.0 0.0 0.00 0.00 0.00 100 1000.6
20260506162210 22 153 0.0 0.0 0.00 0.00 0.00 100 1000.6
20260506161210 22 147 0.0 0.0 0.00 0.00 0.00 100 999.8
20260506160210 22 180 0.0 0.0 0.00 0.00 0.00 100 1000.6
20260506155140 19 192 0.0 0.0 0.00 0.00 0.00 100 1000.6
20260506154140 22 156 0.0 0.0 0.00 0.00 0.00 100 999.3
20260506153109 22 149 0.0 0.0 0.00 0.00 0.00 100 1000.7
20260506152109 22 161 0.0 0.0 0.00 0.00 0.00 100 1000.7
20260506151109 22 186 0.0 0.0 0.00 0.00 0.00 100 1000.8
20260506150039 22 188 0.0 0.0 0.00 0.00 0.00 100 1000.9
20260506145039 22 167 0.0 0.0 0.00 0.00 0.00 100 1001.0
20260506144039 22 155 0.0 0.0 0.00 0.00 0.00 100 1001.1
20260506143039 22 133 0.0 0.0 0.00 0.00 0.00 100 1001.1
20260506142039 22 147 0.0 0.0 0.00 0.00 0.00 100 1001.3
20260506141039 22 139 0.0 0.0 0.00 0.00 0.00 100 1001.3
20260506140039 21 144 0.0 0.0 0.00 0.00 0.00 100 997.3
20260506135039 22 205 0.0 0.0 0.00 0.00 0.00 100 1001.6
20260506134008 20 147 0.0 0.0 0.00 0.00 0.00 100 986.9
20260506133008 24 173 0.0 0.0 0.00 0.00 0.00 100 1010.2
20260506132008 21 186 0.0 0.0 0.00 0.00 0.00 100 1001.8
20260506131008 21 181 0.0 0.0 0.00 0.00 0.00 100 1002.0
20260506130008 21 172 0.0 0.0 0.00 0.00 0.00 100 1002.1
20260506124938 21 207 0.0 0.0 0.00 0.00 0.00 100 1002.1
20260506123938 21 194 0.0 0.0 0.00 0.00 0.00 100 1002.2
20260506122938 21 217 0.0 0.0 0.00 0.00 0.00 100 1002.2
20260506121938 21 211 0.0 0.0 0.00 0.00 0.00 100 1002.3
20260506120938 21 137 0.0 0.0 0.00 0.00 0.00 100 1002.5
20260506115938 19 164 0.0 0.0 0.00 0.00 0.00 100 1002.5
20260506114907 21 200 0.0 0.0 0.00 0.00 0.00 100 1155.5
20260506113907 20 138 0.0 0.0 0.00 0.00 0.00 100 1002.6
20260506112907 20 153 0.0 0.0 0.00 0.00 0.00 100 1002.7
20260506111907 20 205 0.0 0.0 0.00 0.00 0.00 100 1002.7
20260506110837 20 176 0.0 0.0 0.00 0.00 0.00 100 1002.9
20260506105837 20 170 0.0 0.0 0.00 0.00 0.00 100 1002.8
20260506104807 20 136 0.0 0.0 0.00 0.00 0.00 100 1002.9
20260506103807 19 134 0.0 0.0 0.00 0.00 0.00 100 1002.9
20260506102807 19 161 0.0 0.0 0.00 0.00 0.00 100 1003.0
20260506101807 19 182 0.0 0.0 0.00 0.00 0.00 100 1003.0
20260506100807 19 155 0.0 0.0 0.00 0.00 0.00 100 1003.0
20260506095806 19 157 0.0 0.0 0.00 0.00 0.00 100 1003.1
20260506094806 18 335 0.0 0.0 0.00 0.00 0.00 100 1003.3
20260506093806 18 0 0.0 0.0 0.00 0.00 0.00 100 1003.3
20260506092806 18 356 0.0 0.0 0.00 0.00 0.00 100 1003.4
20260506091806 17 335 0.0 0.0 0.00 0.00 0.00 100 1003.3
20260506090806 17 291 0.0 0.0 0.00 0.00 0.00 100 1003.3
20260506085806 17 296 0.0 0.0 0.00 0.00 0.00 100 1003.2
20260506084806 17 356 0.0 0.0 0.00 0.00 0.00 100 1003.1
20260506083806 17 280 0.0 0.0 0.00 0.00 0.00 100 1003.3
20260506082806 17 324 0.0 0.0 0.00 0.00 0.00 100 1003.1
20260506081736 16 287 0.0 0.0 0.00 0.00 0.00 100 1003.2
20260506080736 16 341 0.0 0.0 0.00 0.00 0.00 100 1003.2
20260506072705 15 1 0.0 0.0 0.00 0.00 0.00 100 1109.4
20260506071635 15 2 0.0 0.0 0.00 0.00 0.00 100 1003.1
20260506070635 15 7 0.0 0.0 0.00 0.00 0.00 100 1003.1
20260506061631 13 358 0.0 0.0 0.00 0.00 0.00 100 1002.8
20260506060631 13 351 0.0 0.0 0.00 0.00 0.00 100 1002.6
20260506050530 12 330 0.0 0.0 0.00 0.00 0.00 100 1002.3
20260506044500 12 5 0.0 0.0 0.00 0.00 0.00 100 1002.3
20260506043500 13 1 0.0 0.0 0.00 0.00 0.00 100 1002.1
20260506042500 12 310 0.0 0.0 0.00 0.00 0.00 100 1002.4
20260506041430 13 12 0.0 0.0 0.00 0.00 0.00 100 1002.1
20260506040430 13 24 0.0 0.0 0.00 0.00 0.00 100 1002.1
20260506035400 12 36 0.0 0.0 0.00 0.00 0.00 100 1002.2
20260506034359 12 7 0.0 0.0 0.00 0.00 0.00 100 1002.1
20260506033359 13 9 0.0 0.0 0.00 0.00 0.00 100 1002.1
20260506032329 13 18 0.0 0.0 0.00 0.00 0.00 100 1001.9
20260506031329 13 356 0.0 0.0 0.00 0.00 0.00 100 1001.8
20260506030317 13 4 0.0 0.0 0.00 0.00 0.00 100 1001.8
20260506025317 13 354 0.0 0.0 0.00 0.00 0.00 100 1001.7
20260506024316 13 11 0.0 0.0 0.00 0.00 0.00 100 1001.6
20260506023316 13 6 0.0 0.0 0.00 0.00 0.00 100 1001.6
20260506022246 13 24 0.0 0.0 0.00 0.00 0.00 100 1001.4
20260506021246 13 4 0.0 0.0 0.00 0.00 0.00 100 1001.3
20260506020216 13 26 0.0 0.0 0.00 0.00 0.00 100 1001.2
20260506015216 14 344 0.0 0.0 0.00 0.00 0.00 100 1001.2
20260506014216 14 326 0.0 0.0 0.00 0.00 0.00 100 1001.1
20260506013216 14 356 0.0 0.0 0.00 0.00 0.00 100 1000.9
20260506012216 13 325 0.0 0.0 0.00 0.00 0.00 100 1001.1
20260506011146 13 43 0.0 0.0 0.00 0.00 0.00 100 1001.2
20260506010145 13 44 0.0 0.0 0.00 0.00 0.00 100 1001.2
20260506005115 13 16 0.0 0.0 0.00 0.00 0.00 100 1001.3
20260506004115 13 18 0.0 0.0 0.00 0.00 0.00 100 1001.4
20260506003115 13 40 0.0 0.0 0.00 0.00 0.00 100 1001.6
20260506002115 13 302 0.0 0.0 0.00 0.00 0.00 100 1001.6
20260506001115 13 302 0.0 0.0 0.00 0.00 0.00 100 1001.7
20260506000115 13 302 0.0 0.0 0.00 0.00 0.00 100 1001.7
20260505235115 13 302 0.0 0.0 0.00 0.00 0.00 100 1001.8
20260505234045 13 302 0.0 0.0 0.00 0.00 0.00 100 1001.8
20260505233045 13 221 0.0 0.0 0.00 0.00 0.00 100 1001.7
20260505232045 13 221 0.0 0.0 0.00 0.00 0.00 100 1001.7
20260505231044 13 328 0.0 0.0 0.00 0.00 0.00 100 1001.6
20260505230044 13 313 0.0 0.0 0.00 0.00 0.00 100 1001.4
20260505225044 14 253 0.0 0.0 0.00 0.00 0.00 100 1001.3
20260505224014 15 23 0.0 0.0 0.00 0.00 0.00 100 1001.1
20260505222944 15 23 0.0 0.0 0.00 0.00 0.00 100 1001.2
20260505221944 15 14 0.0 0.0 0.00 0.00 0.00 100 1001.6
20260505220944 15 0 0.0 0.0 0.00 0.00 0.00 100 1002.0
20260505215914 15 0 0.0 0.0 0.00 0.00 0.00 100 1002.5
20260505214914 15 11 0.0 0.0 0.00 0.00 0.00 100 1002.6
20260505213914 15 13 0.0 0.0 0.00 0.00 0.00 100 1002.4
20260505212843 15 13 0.0 0.0 0.00 0.00 0.00 100 1002.5
20260505211843 15 13 0.0 0.0 0.00 0.00 0.00 100 1002.5
20260505210813 15 13 0.0 0.0 0.00 0.00 0.00 100 1002.4
20260505205813 15 13 0.0 0.0 0.00 0.00 0.00 100 1002.3
20260505204813 15 13 0.0 0.0 0.00 0.00 0.00 100 1002.2
20260505203804 16 84 0.0 0.0 0.00 0.00 0.00 100 1010.4